STARLINK-32120 (60265 NORAD) Tracking and Keplerian Element Data

This shows tracking and keplerian element data for the satellite.

Feedback or suggestion? Click here.




ElementValue
Catalog60265
NameSTARLINK-32120
Epoch Orbit1316
Epoch Day286.39180351
Epoch Year2024
RAAN277.8403
Inclination53.1584
Eccentricity0.0001456
Argument of Perigee81.2759
Mean Anonmoly278.841
Mean Motion15.3963404
Decay Rate0.00037548
L11 60265U 24131L 24286.39180351 .00037548 00000+0 94361-3 0 9994
L22 60265 53.1584 277.8403 0001456 81.2759 278.8410 15.39634040 13162



Live tracking and technical data element details for STARLINK-32120 (NORAD 60265). STARLINK-32120 can be tracked NOW for your location showing map with azimuth and elevation plus other details from your city location.







IsCatalogInMostPopularTable: catalog: 60265, numindb: 10
Update: records affected: 1



GetName: 60265 STARLINK-32120

Hit Count: updated at: Thu, 23 Jan 2025 13:27:45 GMT